Regional Weather Roundup
Issued by NWS

Home | Current Version | Previous Version | Text Only | Print | Product List | Glossary On
Versions: 1 2 3 4 5 6 7 8 9 10 11 12 13 14 15 16 17 18 19 20 21 22 23 24 25 26 27 28 29 30 31 32 33 34 35 36 37 38 39 40 41 42 43 44 45 46 47 48 49 50
000
ASUS44 KBMX 031510
RWRAL

ALABAMA REGIONAL WEATHER ROUNDUP
NATIONAL WEATHER SERVICE BIRMINGHAM AL
1000 AM CDT MON AUG 03 2015

NOTE: "FAIR" INDICATES FEW OR NO CLOUDS BELOW 12,000 FEET
WITH NO SIGNIFICANT WEATHER AND/OR OBSTRUCTIONS TO VISIBILITY.

THE REMARK "TC" DENOTES TEMPERATURE IN DEGREES CELSIUS.

ALZ001>011-014-016>018-020-031600-
NORTH ALABAMA

CITY           SKY/WX    TMP DP  RH WIND       PRES   REMARKS
MUSCLE SHOALS  SUNNY     84  65  52 CALM      29.98S
HUNTSVILLE     MOSUNNY   83  65  54 SE5       29.98R
DECATUR        SUNNY     82  64  54 SE3       29.98S
HALEYVILLE     FAIR      85  65  51 CALM      30.02R
GADSDEN        MOSUNNY   82  61  47 CALM      29.97R
$$

ALZ012-013-022-023-030>036-040>044-031600-
WEST CENTRAL ALABAMA

CITY           SKY/WX    TMP DP  RH WIND       PRES   REMARKS
TUSCALOOSA     SUNNY     86  64  47 NE3       29.96R
$$

ALZ015-024>027-033>036-040>044-031600-
CENTRAL ALABAMA

CITY           SKY/WX    TMP DP  RH WIND       PRES   REMARKS
BIRMINGHAM     MOSUNNY   86  64  47 CALM      29.99R
MONTGOMERY     SUNNY     86  71  60 E5        29.93R HX  91
SHELBY CO ARPT SUNNY     86  66  51 VRB5      29.96R
MAXWELL AFB    SUNNY     85  71  64 E5        29.92R HX  90
GREENVILLE     FAIR      93  62  35 N3        29.92S HX  93
$$

ALZ019-021-028-029-037-038-045>048-031600-
EAST CENTRAL ALABAMA

CITY           SKY/WX    TMP DP  RH WIND       PRES   REMARKS
ANNISTON       MOSUNNY   83  68  60 NE5       29.97R
ALEXANDER CITY SUNNY     82  69  64 CALM      29.96R
AUBURN         PTSUNNY   79  73  83 SE5       29.98R
$$

ALZ051>064-031600-
SOUTHWEST ALABAMA

CITY           SKY/WX    TMP DP  RH WIND       PRES   REMARKS
MOBILE         PTSUNNY   89  69  51 VRB5      29.93F HX  93
BROOKLEY FIELD SUNNY     89  68  49 NE7       29.93S HX  93
EVERGREEN      SUNNY     88  68  51 VRB3      29.93S HX  91
$$

ALZ049-050-065>069-031600-
SOUTHEAST ALABAMA

CITY           SKY/WX    TMP DP  RH WIND       PRES   REMARKS
DOTHAN         SUNNY     87  74  64 E3        29.95S HX  95
OZARK          SUNNY     85  75  71 S3        29.91S HX  94
TROY           SUNNY     87  74  64 CALM      29.93S HX  95
EUFAULA        FAIR      86  74  67 VRB3      29.92R HX  94
$$



USA.gov is the U.S. government's official web portal to all federal, state and local government web resources and services.